Regional Weather Roundup
Issued by NWS

Home | Current Version | Previous Version | Graphics & Text | Print | Product List | Glossary On
Versions: 1 2 3 4 5 6 7 8 9 10 11 12 13 14 15 16 17 18 19 20 21 22 23 24 25 26 27 28 29 30 31 32 33 34 35 36 37 38 39 40 41 42 43 44 45 46 47 48 49 50
000
ASUS44 KMEG 300110
RWRTN
TENNESSEE HOURLY STATE WEATHER ROUNDUP
NATIONAL WEATHER SERVICE MEMPHIS TN
800 PM CDT FRI JUL 29 2016

TNZ002-004-019-021-049-052-054-088>092-300200-
WEST TENNESSEE

CITY           SKY/WX    TMP DP  RH WIND       PRES   REMARKS
MEMPHIS INTL   LGT RAIN  75  71  87 SE6       29.93F
NWS MEMPHIS      N/A     73 N/A N/A MISG        N/A
JACKSON        TSTM      78  76  93 SW16      29.96R
DYERSBURG      CLOUDY   N/A N/A N/A MISG        N/A
UNION CITY     MOCLDY    79  73  83 N14       29.95R
PARIS          CLOUDY    75  70  83 CALM      29.96R
LEXINGTON      MOCLDY    73  72  94 S3        29.97R
$$

TNZ008-025-027-028-033-062-065-066-300200-
NORTH MIDDLE TENNESSEE

CITY           SKY/WX    TMP DP  RH WIND       PRES   REMARKS
NASHVILLE      PTCLDY    82  73  74 W3        29.94R
CLARKSVILLE    CLOUDY    73  71  93 SW3       29.93S
SMYRNA         MOCLDY    84  74  72 W6        29.94R HX  91
COOKEVILLE     CLEAR     77  73  88 SE3       29.96S
CROSSVILLE     CLEAR     73  70  90 CALM      30.03R
$$

TNZ061-075-076-078-094-096-097-300200-
SOUTH MIDDLE TENNESSEE

CITY           SKY/WX    TMP DP  RH WIND       PRES   REMARKS
FAYETTEVILLE   PTCLDY    79  73  83 SW5       29.98R
TULLAHOMA      CLEAR     79  72  78 CALM      30.00R
WINCHESTER     CLEAR     81  72  74 CALM      29.98R
MCMINNVILLE    CLEAR     79  79 100 CALM      29.97R
COLUMBIA       CLOUDY    79  79 100 VRB3      29.95R
SHELBYVILLE    CLEAR     82  75  78 S3        29.98R
$$

TNZ017-018-042-046-047-300200-
NORTHEAST TENNESSEE

CITY           SKY/WX    TMP DP  RH WIND       PRES   REMARKS
TRI CITIES     MOCLDY    71  68  90 S3        30.03R
ELIZABETHTON   PTCLDY    72  70  94 CALM      30.02R
$$

TNZ012-013-036-069-073-074-300200-
CENTRAL EAST TENNESSEE

CITY           SKY/WX    TMP DP  RH WIND       PRES   REMARKS
KNOXVILLE      CLOUDY    75  72  90 E3        29.98S
OAK RIDGE      CLOUDY    79  71  76 SE5       30.00R
GATLINBURG     MOCLDY    75  70  83 W6        30.00R
MORRISTOWN     PTCLDY    73  72  94 S5        30.00S
$$

TNZ083-085-099-300200-
SOUTHEAST TENNESSEE

CITY           SKY/WX    TMP DP  RH WIND       PRES   REMARKS
CHATTANOOGA    PTCLDY    85  70  60 SW8       29.96R
$$

SKY/WX REPORTED AS FAIR MEANS FEW OR NO CLOUDS BELOW
12 THOUSAND FEET.





USA.gov is the U.S. government's official web portal to all federal, state and local government web resources and services.